This demonstration page uses our WeatherBlox Daily Observations layout. Learn more.

Hourly Observations for May 2, 2019

Temp ( °F °C ) Dew Point ( °F °C ) Humidity (%) Winds ( mph kmh ) Pressure ( in mb ) Visibility ( mi km ) Precip ( " mm )
12:15 am 00:15 Partly Cloudy 61 16 59 15 94 94 Calm 30.18 1022 7 11.265408 0 0
12:35 am 00:35 Clear 59 15 59 15 100 100 Calm 30.18 1022 7 11.265408 0 0
12:55 am 00:55 Clear 59 15 59 15 100 100 Calm 30.15 1021 7 11.265408 0 0
1:15 am 01:15 Partly Cloudy 59 15 59 15 100 100 Calm 30.15 1021 7 11.265408 0 0
1:35 am 01:35 Partly Cloudy 57 14 57 14 100 100 Calm 30.15 1021 7 11.265408 0 0
1:55 am 01:55 Clear 57 14 57 14 100 100 Calm 30.15 1021 7 11.265408 0 0
2:15 am 02:15 Clear 57 14 57 14 100 100 Calm 30.15 1021 7 11.265408 0 0
2:35 am 02:35 Clear 55 13 55 13 100 100 Calm 30.15 1021 5 8.04672 0 0
2:55 am 02:55 Clear 55 13 55 13 100 100 Calm 30.12 1020 4 6.437376 0 0
3:15 am 03:15 Mostly Cloudy 55 13 55 13 100 100 Calm 30.15 1021 3 4.828032 0 0
3:35 am 03:35 Cloudy 55 13 55 13 100 100 Calm 30.12 1020 1.5 2.414016 0 0
3:55 am 03:55 Cloudy 54 12 54 12 100 100 Calm 30.12 1020 0.25 0.402336 0 0
4:15 am 04:15 Cloudy 54 12 54 12 100 100 Calm 30.12 1020 0.25 0.402336 0 0
4:35 am 04:35 Cloudy 54 12 54 12 100 100 Calm 30.12 1020 0.25 0.402336 0 0
4:55 am 04:55 Cloudy 54 12 54 12 100 100 Calm 30.12 1020 0.25 0.402336 0 0
5:15 am 05:15 Cloudy 54 12 54 12 100 100 Calm 30.12 1020 0.5 0.804672 0 0
5:35 am 05:35 Cloudy 54 12 54 12 100 100 Calm 30.12 1020 1.25 2.01168 0 0
5:55 am 05:55 Cloudy 54 12 54 12 100 100 Calm 30.12 1020 0.5 0.804672 0 0
6:15 am 06:15 Cloudy 54 12 54 12 100 100 Calm 30.12 1020 0.25 0.402336 0 0
6:35 am 06:35 Cloudy 54 12 54 12 100 100 Calm 30.15 1021 0 0 0 0
6:55 am 06:55 Cloudy 54 12 54 12 100 100 Calm 30.15 1021 0 0 0 0
7:15 am 07:15 Cloudy 54 12 54 12 100 100 Calm 30.15 1021 0 0 0 0
7:35 am 07:35 Cloudy 55 13 55 13 100 100 Calm 30.15 1021 0 0 0 0
7:55 am 07:55 Cloudy 55 13 55 13 100 100 Calm 30.15 1021 0 0 0 0
8:15 am 08:15 Cloudy 55 13 55 13 100 100 Calm 30.15 1021 0.25 0.402336 0 0
8:35 am 08:35 Cloudy 55 13 55 13 100 100 Calm 30.15 1021 0.25 0.402336 0 0
8:55 am 08:55 Cloudy 55 13 55 13 100 100 Calm 30.15 1021 0.5 0.804672 0 0
9:15 am 09:15 Cloudy 55 13 55 13 100 100 Calm 30.15 1021 1.25 2.01168 0 0
9:35 am 09:35 Cloudy 57 14 57 14 100 100 Calm 30.15 1021 2.5 4.02336 0 0
9:55 am 09:55 Cloudy 59 15 59 15 100 100 Calm 30.15 1021 3 4.828032 0 0
10:15 am 10:15 Partly Cloudy 61 16 61 16 100 100 N 5 7 30.15 1021 5 8.04672 0 0
10:35 am 10:35 Sunny 64 18 61 16 88 88 Calm 30.15 1021 7 11.265408 0 0
10:55 am 10:55 Sunny 66 19 63 17 88 88 Calm 30.15 1021 10 16.09344 0 0
11:15 am 11:15 Sunny 68 20 63 17 83 83 SE 5 7 30.15 1021 10 16.09344 0 0
11:35 am 11:35 Sunny 73 23 63 17 69 69 Calm 30.15 1021 10 16.09344 0 0
12:35 pm 12:35 Sunny 79 26 64 18 61 61 E 3 6 30.12 1020 10 16.09344 0 0
1:35 pm 13:35 Sunny 82 28 63 17 51 51 SW 9 15 30.09 1019 10 16.09344 0 0
2:35 pm 14:35 Mostly Cloudy with Nearby Thunderstorms 86 30 63 17 46 46 S 8 13 30.06 1018 10 16.09344 0 0
2:55 pm 14:55 Cloudy with Thunderstorms 72 22 68 20 88 88 NW 33 54 30.09 1019 2.5 4.02336 0 0
3:15 pm 15:15 Mostly Cloudy with Thunderstorms 70 21 68 20 94 94 S 7 11 30.09 1019 5 8.04672 0 0
3:35 pm 15:35 Mostly Cloudy with Nearby Thunderstorms 70 21 68 20 94 94 ENE 5 7 30.09 1019 10 16.09344 0 0
3:55 pm 15:55 Mostly Cloudy with Nearby Thunderstorms 73 23 68 20 83 83 Calm 30.06 1018 10 16.09344 0 0
4:15 pm 16:15 Mostly Cloudy 75 24 72 22 89 89 S 6 9 30.06 1018 10 16.09344 0 0
4:35 pm 16:35 Sunny 77 25 68 20 74 74 SE 6 9 30.06 1018 10 16.09344 0 0
4:55 pm 16:55 Sunny 77 25 70 21 79 79 SE 7 11 30.06 1018 10 16.09344 0 0
5:15 pm 17:15 Sunny 77 25 70 21 79 79 ESE 7 11 30.06 1018 10 16.09344 0 0
5:35 pm 17:35 Mostly Cloudy 77 25 70 21 79 79 S 9 15 30.09 1019 10 16.09344 0 0
5:55 pm 17:55 Mostly Cloudy 77 25 70 21 79 79 S 7 11 30.06 1018 10 16.09344 0 0
6:15 pm 18:15 Sunny 77 25 68 20 74 74 Calm 30.09 1019 10 16.09344 0 0
6:35 pm 18:35 Sunny 77 25 68 20 74 74 Calm 30.09 1019 10 16.09344 0 0
6:55 pm 18:55 Sunny 77 25 68 20 74 74 ESE 5 7 30.09 1019 10 16.09344 0 0
7:15 pm 19:15 Partly Cloudy 75 24 70 21 83 83 ENE 6 9 30.09 1019 10 16.09344 0 0
7:35 pm 19:35 Sunny 73 23 68 20 83 83 SE 6 9 30.09 1019 10 16.09344 0 0
7:55 pm 19:55 Sunny 73 23 70 21 89 89 E 6 9 30.09 1019 10 16.09344 0 0
8:15 pm 20:15 Partly Cloudy 72 22 70 21 94 94 Calm 30.09 1019 10 16.09344 0 0
8:35 pm 20:35 Clear 70 21 70 21 100 100 SSE 3 6 30.09 1019 10 16.09344 0 0
9:15 pm 21:15 Clear 70 21 68 20 94 94 Calm 30.09 1019 10 16.09344 0 0
9:35 pm 21:35 Clear 70 21 68 20 94 94 ESE 3 6 30.09 1019 10 16.09344 0 0
9:55 pm 21:55 Partly Cloudy 68 20 68 20 100 100 Calm 30.09 1019 10 16.09344 0 0
10:15 pm 22:15 Cloudy 66 19 66 19 100 100 Calm 30.09 1019 10 16.09344 0 0
10:35 pm 22:35 Mostly Cloudy 68 20 66 19 94 94 S 3 6 30.09 1019 10 16.09344 0 0
10:55 pm 22:55 Mostly Cloudy 66 19 66 19 100 100 Calm 30.09 1019 10 16.09344 0 0
11:15 pm 23:15 Partly Cloudy 64 18 64 18 100 100 Calm 30.09 1019 10 16.09344 0 0
11:35 pm 23:35 Clear 64 18 64 18 100 100 Calm 30.09 1019 10 16.09344 0 0
11:55 pm 23:55 Clear 66 19 64 18 94 94 SSE 3 6 30.09 1019 10 16.09344 0 0

Powered by AerisWeather